Date String (YYYY-MM-DD hh:mm:ss) UTC,Instrument flags,Ambient pressure (hPa),Sample flow (lpm),Bypass flow (lpm),Sample temperature (°C),Ambient temperature (°C),ASC tube jacket temperature (°C),LED temperature (°C),Box temperature (°C),Sample RH (%),Span deviation,Mass concentration (μg/m³),Mass concentration (μg/m³),Mass concentration (μg/m³)
DateTimeUTC,F1_M11,P_M11,Q1_M11,Q2_M11,T1_M11,T2_M11,T3_M11,T4_M11,T5_M11,U1_M11,ZSPAN_M11,X0_M11,X2_M11,X1_M11
2022-10-18 09:00:00,,0832.3,4.99,0.00,26.6,24.9,00.0,35.5,28.4,13.8,0002.7,0016.41,0007.04,0006.05
2022-10-18 09:01:00,,0832.3,5.00,0.00,26.6,24.9,00.0,35.5,28.3,13.7,0002.3,0016.19,0007.04,0006.06
2022-10-18 09:02:00,,0832.2,5.00,0.00,26.6,24.9,00.0,35.5,28.4,13.8,0003.6,0016.44,0007.10,0006.09
2022-10-18 09:03:00,,0832.2,5.00,0.00,26.6,25.0,00.0,35.5,28.4,13.8,0003.1,0014.31,0007.08,0006.11
2022-10-18 09:04:00,,0832.3,5.00,0.00,26.6,25.0,00.0,35.5,28.4,13.7,0003.9,0013.25,0007.05,0006.11
2022-10-18 09:05:00,,0832.2,5.01,0.00,26.6,25.0,00.0,35.5,28.4,13.7,0003.9,0013.12,0007.08,0006.12
2022-10-18 09:06:00,,0832.3,5.01,0.00,26.6,25.0,00.0,35.4,28.4,13.7,0001.9,0013.00,0007.01,0006.13
2022-10-18 09:07:00,,0832.3,5.01,0.00,26.6,25.0,00.0,35.4,28.4,13.7,0001.3,0013.26,0007.03,0006.14
2022-10-18 09:08:00,,0832.3,4.99,0.00,26.6,24.9,00.0,35.4,28.3,13.7,0002.8,0013.43,0007.00,0006.13
2022-10-18 09:09:00,,0832.2,4.99,0.00,26.5,24.9,00.0,35.4,28.3,13.7,0002.4,0013.13,0006.99,0006.13
2022-10-18 09:10:00,,0832.2,4.99,0.00,26.5,24.9,00.0,35.4,28.3,13.7,0002.3,0012.29,0006.96,0006.11
2022-10-18 09:11:00,,0832.2,5.01,0.00,26.5,24.9,00.0,35.4,28.3,13.7,0002.3,0013.18,0006.95,0006.09
2022-10-18 09:12:00,,0832.3,5.01,0.00,26.5,24.9,00.0,35.4,28.3,13.7,0001.5,0013.44,0006.91,0006.08
2022-10-18 09:13:00,,0832.2,4.99,0.00,26.5,24.8,00.0,35.4,28.3,13.7,0000.0,0013.43,0006.87,0006.03
2022-10-18 09:14:00,,0832.2,4.99,0.00,26.5,24.8,00.0,35.4,28.3,13.7,0000.0,0013.76,0006.85,0005.98
2022-10-18 09:15:00,,0832.2,5.00,0.00,26.5,24.8,00.0,35.4,28.3,13.7,0000.0,0013.89,0006.82,0005.96
2022-10-18 09:16:00,,0832.2,5.01,0.00,26.5,24.8,00.0,35.4,28.2,13.7,0000.0,0013.69,0006.78,0005.91
2022-10-18 09:17:00,,0832.3,5.01,0.00,26.5,24.8,00.0,35.4,28.2,13.7,0000.4,0015.22,0006.75,0005.89
2022-10-18 09:18:00,,0832.3,4.99,0.00,26.5,24.8,00.0,35.4,28.2,13.7,0002.0,0014.82,0006.70,0005.86
2022-10-18 09:19:00,,0832.3,5.00,0.00,26.5,24.8,00.0,35.4,28.3,13.7,0002.5,0014.67,0006.73,0005.84
2022-10-18 09:20:00,,0832.3,4.99,0.00,26.5,24.8,00.0,35.4,28.3,13.7,0001.8,0015.05,0006.72,0005.84
2022-10-18 09:21:00,,0832.3,5.00,0.00,26.4,24.8,00.0,35.4,28.2,13.7,0002.4,0015.25,0006.72,0005.84
2022-10-18 09:22:00,,0832.2,5.00,0.00,26.4,24.8,00.0,35.4,28.2,13.7,0000.8,0014.72,0006.71,0005.82
2022-10-18 09:23:00,,0832.3,5.01,0.00,26.4,24.8,00.0,35.3,28.2,13.7,0002.3,0014.79,0006.70,0005.80
2022-10-18 09:24:00,,0832.3,5.00,0.00,26.4,24.8,00.0,35.3,28.2,13.8,0003.1,0017.06,0006.69,0005.79
2022-10-18 09:25:00,,0832.3,5.00,0.00,26.4,24.8,00.0,35.3,28.3,13.8,0003.5,0017.02,0006.72,0005.81
2022-10-18 09:26:00,,0832.3,5.00,0.00,26.4,24.8,00.0,35.3,28.3,13.8,0003.8,0016.81,0006.72,0005.81
2022-10-18 09:27:00,,0832.3,5.00,0.00,26.4,24.8,00.0,35.3,28.3,13.8,0001.9,0017.07,0006.69,0005.80
2022-10-18 09:28:00,,0832.3,5.00,0.00,26.4,24.8,00.0,35.3,28.2,13.8,0001.2,0016.23,0006.68,0005.78
2022-10-18 09:29:00,,0832.4,5.00,0.00,26.4,24.8,00.0,35.3,28.2,13.8,0000.0,0017.38,0006.76,0005.78
2022-10-18 09:30:00,,0832.3,5.00,0.00,26.4,24.8,00.0,35.3,28.3,13.9,0000.0,0018.18,0006.79,0005.81
2022-10-18 09:31:00,,0832.3,5.00,0.00,26.4,24.8,00.0,35.3,28.2,13.9,0002.2,0018.44,0006.80,0005.83
2022-10-18 09:32:00,,0832.3,5.00,0.00,26.4,24.8,00.0,35.3,28.2,13.8,0003.8,0019.10,0006.81,0005.84
2022-10-18 09:33:00,,0832.3,4.99,0.00,26.4,24.8,00.0,35.3,28.2,13.8,0003.7,0018.93,0006.84,0005.85
2022-10-18 09:34:00,,0832.2,5.00,0.00,26.4,24.8,00.0,35.3,28.2,13.7,0003.4,0018.97,0006.88,0005.85
2022-10-18 09:35:00,,0832.2,5.01,0.00,26.4,24.8,00.0,35.3,28.1,13.7,0001.5,0017.09,0006.85,0005.84
2022-10-18 09:36:00,,0832.3,5.01,0.00,26.4,24.8,00.0,35.3,28.2,13.8,0000.3,0016.84,0006.80,0005.81
2022-10-18 09:37:00,,0832.3,4.99,0.00,26.4,24.8,00.0,35.3,28.2,13.8,0000.0,0016.86,0006.81,0005.79
2022-10-18 09:38:00,,0832.3,4.99,0.00,26.4,24.8,00.0,35.3,28.2,13.8,0000.0,0016.99,0006.80,0005.80
2022-10-18 09:39:00,,0832.3,5.00,0.00,26.4,24.8,00.0,35.3,28.2,13.8,0000.0,0016.82,0006.82,0005.83
2022-10-18 09:40:00,,0832.2,5.00,0.00,26.4,24.7,00.0,35.3,28.2,13.9,0000.0,0015.45,0006.77,0005.84
2022-10-18 09:41:00,,0832.2,5.01,0.00,26.4,24.8,00.0,35.3,28.2,13.9,0000.0,0015.47,0006.73,0005.81
2022-10-18 09:42:00,,0832.3,5.01,0.00,26.4,24.8,00.0,35.2,28.2,13.9,0000.0,0015.64,0006.75,0005.81
2022-10-18 09:43:00,,0832.2,5.00,0.00,26.4,24.7,00.0,35.2,28.2,13.9,0000.0,0015.34,0006.78,0005.80
2022-10-18 09:44:00,,0832.3,5.00,0.00,26.4,24.7,00.0,35.2,28.2,13.9,0000.0,0015.89,0006.77,0005.80
2022-10-18 09:45:00,,0832.3,4.99,0.00,26.3,24.7,00.0,35.2,28.2,13.9,0000.0,0015.94,0006.71,0005.81
2022-10-18 09:46:00,,0832.2,4.99,0.00,26.3,24.7,00.0,35.2,28.2,13.8,0000.0,0016.40,0006.72,0005.81
2022-10-18 09:47:00,,0832.3,5.02,0.00,26.3,24.7,00.0,35.2,28.1,13.8,0000.0,0016.54,0006.73,0005.81
2022-10-18 09:48:00,,0832.2,5.00,0.00,26.3,24.7,00.0,35.2,28.1,13.8,0000.0,0016.44,0006.71,0005.80
2022-10-18 09:49:00,,0832.3,4.98,0.00,26.3,24.7,00.0,35.2,28.1,13.8,0003.0,0015.93,0006.65,0005.79
2022-10-18 09:50:00,,0832.2,5.00,0.00,26.3,24.6,00.0,35.2,28.1,13.8,0003.6,0015.27,0006.59,0005.75
2022-10-18 09:51:00,,0832.3,5.00,0.00,26.3,24.6,00.0,35.2,28.1,13.8,0002.5,0015.48,0006.54,0005.69
2022-10-18 09:52:00,,0832.3,5.01,0.00,26.3,24.6,00.0,35.2,28.2,13.7,0002.8,0015.26,0006.48,0005.65
2022-10-18 09:53:00,,0832.2,5.00,0.00,26.3,24.6,00.0,35.2,28.1,13.7,0003.4,0014.32,0006.38,0005.58
2022-10-18 09:54:00,,0832.2,4.99,0.00,26.3,24.6,00.0,35.2,28.0,13.7,0003.2,0013.65,0006.28,0005.54
2022-10-18 09:55:00,,0832.3,4.99,0.00,26.2,24.6,00.0,35.2,28.1,13.7,0000.8,0013.59,0006.19,0005.48
2022-10-18 09:56:00,,0832.3,5.00,0.00,26.3,24.6,00.0,35.2,28.1,13.7,0000.0,0012.91,0006.17,0005.44
2022-10-18 09:57:00,,0832.2,5.00,0.00,26.2,24.6,00.0,35.2,28.0,13.7,0002.2,0011.49,0006.10,0005.41
2022-10-18 09:58:00,,0832.2,5.00,0.00,26.2,24.5,00.0,35.1,28.0,13.7,0001.9,0011.40,0006.04,0005.37
2022-10-18 09:59:00,,0832.2,5.00,0.00,26.2,24.5,00.0,35.1,28.0,13.7,0001.9,0011.62,0006.02,0005.34
